Location: Domont
(49.0278°N, 2.3264°E)
Time: 02:57:57
(UTC+00:00)

DIWATA 2B (PO-101) - Pass Details

Date: 01 July 2022
Orbit: 583 x 599 km, 98.0° (Epoch: 13 August)

Event Time Altitude Azimuth Distance (km) Brightness Sun altitude
Exits shadow 01:39:49 17° 168° (SSE) 1,529 ? -14.1°
Maximum altitude 01:43:01 83° 254° (WSW) 611 ? -13.9°
Drops below altitude 10° 01:47:17 10° 345° (NNW) 1,952 ? -13.6°
Sets 01:49:28 0° 346° (NNW) 2,859 ? -13.4°
